Cut Bank, MT

3:39 PM MST on January 22, 2018 (GMT -0700)
Cut Bank Municipal

Weather History for KCTB - October, 2011

Change the Weather History Date:

Thursday, October 6, 2011

  Actual Average Record
Temperature  
Mean Temperature 44 °F 47 °F  
Max Temperature 46 °F 60 °F 85 °F (1960)
Min Temperature 42 °F 33 °F 9 °F (2000)
Degree Days  
Heating Degree Days 21 18  
Month to date heating degree days 70 105  
Since 1 July heating degree days 398 642  
Cooling Degree Days 0 0  
Month to date cooling degree days 0 0  
Year to date cooling degree days 151 161  
Moisture  
Dew Point 41 °F    
Average Humidity 90    
Maximum Humidity 96    
Minimum Humidity 83    
Precipitation  
Precipitation 0.07 in 0.02 in 0.61 in (2011)
Month to date precipitation 0.50 0.13  
Year to date precipitation 5.13 10.01  
Snow  
Snow 0.00 in - - ()
Snow Depth 0.00 in    
Sea Level Pressure  
Sea Level Pressure 29.62 in    
Wind  
Wind Speed 24 mph (NW)    
Max Wind Speed 37 mph    
Max Gust Speed 46 mph    
Visibility 8 miles    
Events Rain    
T = Trace of Precipitation, MM = Missing Value Source: NWS Daily Summary

Daily Weather History Graph

Daily Weather History Graph

Search for Another Location

Airport or City:

Trip Planner

Search our weather history database for the weather conditions in past years. The results will help you decide how hot, cold, wet, or windy it might be!

Date:

Astronomy

Oct. 06, 2011 Rise Set
Actual Time 7:35 AM MDT 6:58 PM MDT
Civil Twilight 7:04 AM MDT 7:29 PM MDT
Nautical Twilight 6:28 AM MDT 8:06 PM MDT
Astronomical Twilight 5:51 AM MDT 8:42 PM MDT
Moon 4:34 PM MDT (10/6) 2:04 AM MDT (10/6)
Length of Visible Light 12h 25m
Length of Day
11h 22m
Waxing Gibbous, 76% of the Moon is Illuminated
Oct 6
Waxing Gibbous
Oct 11
Full
Oct 19
Last Quarter
Oct 26
New
Nov 2
First Quarter

Hourly Weather History & Observations

Time (MDT) Temp. Windchill Dew Point Humidity Pressure Visibility Wind Dir Wind Speed Gust Speed Precip Events Conditions
12:07 AM 46.4 °F 39.8 °F 44.6 °F 93% 29.55 in 2.5 mi NNW 16.1 mph - N/A Rain Heavy Rain
12:22 AM 46.4 °F 38.7 °F 44.6 °F 93% 29.55 in 3.0 mi North 20.7 mph 24.2 mph N/A Rain Rain
12:40 AM 46.4 °F 39.2 °F 44.6 °F 93% 29.55 in 4.0 mi North 18.4 mph - N/A Rain Rain
12:56 AM 46.0 °F 38.5 °F 45.0 °F 96% 29.54 in 4.0 mi North 19.6 mph - N/A Rain Rain
1:56 AM 45.0 °F 36.9 °F 43.0 °F 93% 29.53 in 10.0 mi NNW 20.7 mph 28.8 mph N/A   Overcast
2:25 AM 44.6 °F 36.1 °F 42.8 °F 93% 29.55 in 10.0 mi NNW 21.9 mph 26.5 mph 0.00 in Rain Light Rain
2:56 AM 44.1 °F 35.7 °F 42.1 °F 93% 29.54 in 10.0 mi NNW 20.7 mph - 0.01 in Rain Light Rain
3:56 AM 44.1 °F 35.7 °F 42.1 °F 93% 29.53 in 10.0 mi NW 20.7 mph - 0.00 in   Overcast
4:26 AM 44.6 °F 36.9 °F 42.8 °F 93% 29.55 in 10.0 mi NW 18.4 mph 27.6 mph N/A Rain Light Rain
4:56 AM 44.1 °F 36.5 °F 43.0 °F 96% 29.54 in 8.0 mi NW 17.3 mph - 0.01 in Rain Light Rain
5:38 AM 44.6 °F 36.6 °F 42.8 °F 93% 29.55 in 7.0 mi NW 19.6 mph 27.6 mph N/A Rain Rain
5:56 AM 44.6 °F 35.9 °F 42.8 °F 93% 29.55 in 7.0 mi NNW 23.0 mph 26.5 mph N/A Rain Rain
6:31 AM 42.8 °F 33.3 °F 41.0 °F 93% 29.55 in 10.0 mi NW 24.2 mph 29.9 mph N/A Rain Light Rain
6:56 AM 43.0 °F 33.5 °F 41.0 °F 93% 29.56 in 10.0 mi NW 24.2 mph 31.1 mph N/A Rain Light Rain
7:56 AM 43.0 °F 34.2 °F 41.0 °F 93% 29.58 in 10.0 mi NW 20.7 mph - 0.00 in Rain Light Rain
8:37 AM 42.8 °F 33.8 °F 41.0 °F 93% 29.60 in 4.0 mi NW 21.9 mph 29.9 mph N/A Rain Rain
8:44 AM 42.8 °F 34.0 °F 41.0 °F 93% 29.60 in 2.5 mi NW 20.7 mph 27.6 mph N/A Rain Rain
8:56 AM 43.0 °F 33.5 °F 41.0 °F 93% 29.60 in 2.0 mi NW 24.2 mph 31.1 mph N/A Rain Rain
9:29 AM 42.8 °F 34.0 °F 41.0 °F 93% 29.60 in 4.0 mi NW 20.7 mph 29.9 mph N/A Rain Light Rain
9:56 AM 43.0 °F 33.8 °F 41.0 °F 93% 29.61 in 10.0 mi NW 23.0 mph 33.4 mph N/A   Overcast
10:28 AM 42.8 °F 32.5 °F 39.2 °F 87% 29.60 in 10.0 mi NW 28.8 mph 35.7 mph N/A   Overcast
10:56 AM 42.8 °F 32.7 °F 39.2 °F 87% 29.61 in 10.0 mi NW 27.6 mph 33.4 mph N/A   Overcast
11:23 AM 42.8 °F 32.9 °F 41.0 °F 93% 29.61 in 10.0 mi NW 26.5 mph 34.5 mph N/A   Overcast
11:56 AM 44.1 °F 34.4 °F 41.0 °F 89% 29.63 in 10.0 mi NW 27.6 mph 34.5 mph N/A   Overcast
12:56 PM 44.6 °F 34.4 °F 41.0 °F 87% 29.62 in 10.0 mi NW 32.2 mph 40.3 mph N/A   Overcast
1:56 PM 45.0 °F 34.9 °F 39.0 °F 80% 29.64 in 10.0 mi NNW 32.2 mph 41.4 mph N/A   Overcast
2:56 PM 45.0 °F 35.1 °F 39.0 °F 80% 29.65 in 10.0 mi NW 31.1 mph 39.1 mph N/A   Overcast
3:56 PM 43.0 °F 33.8 °F 39.9 °F 89% 29.68 in 10.0 mi NW 23.0 mph 32.2 mph N/A   Overcast
4:17 PM 44.6 °F 34.9 °F 41.0 °F 87% 29.66 in 10.0 mi NW 28.8 mph 34.5 mph N/A   Overcast
4:56 PM 43.0 °F 33.3 °F 41.0 °F 93% 29.68 in 5.0 mi NW 25.3 mph 36.8 mph 0.00 in   Overcast
5:18 PM 42.8 °F 32.7 °F 41.0 °F 93% 29.67 in 9.0 mi NW 27.6 mph 40.3 mph N/A   Overcast
5:56 PM 43.0 °F 32.7 °F 41.0 °F 93% 29.70 in 8.0 mi NW 28.8 mph 35.7 mph N/A   Overcast
6:56 PM 42.8 °F 33.5 °F 41.0 °F 93% 29.69 in 10.0 mi NW 23.0 mph 32.2 mph N/A   Overcast
7:56 PM 43.0 °F 33.5 °F 41.0 °F 93% 29.74 in 10.0 mi NW 24.2 mph 29.9 mph 0.00 in Rain Light Rain
8:56 PM 43.0 °F 33.5 °F 41.0 °F 93% 29.74 in 10.0 mi NW 24.2 mph 31.1 mph 0.01 in Rain Light Rain
9:56 PM 43.0 °F 34.0 °F 41.0 °F 93% 29.75 in 10.0 mi NW 21.9 mph 32.2 mph 0.01 in Rain Light Rain
10:56 PM 43.0 °F 34.2 °F 41.0 °F 93% 29.75 in 10.0 mi NW 20.7 mph 31.1 mph 0.00 in   Overcast
11:53 PM 42.8 °F 33.8 °F 41.0 °F 93% 29.71 in 10.0 mi NW 21.9 mph 27.6 mph N/A   Overcast
11:56 PM 43.0 °F 33.8 °F 41.0 °F 93% 29.73 in 10.0 mi NW 23.0 mph 29.9 mph N/A   Overcast